NANOSATC-BR1

Last updated on Mon Dec 15 2025 00:03:57 GMT+0000 (Coordinated Universal Time)

1 40024U 14033Q 25348.03798774 .00017877 00000+0 72519-3 0 9994 2 40024 98.0907 359.7982 0005815 101.2907 258.8982 15.24676846625708
UTC large
Height (km)
Speed (km/s)
/
Latitude / Longitude
Inclination (degrees)
Orbital Period (minutes)
Azimuth
Elevation
Range (km)
Doppler Factor

Next 0 passes for location: London (51.5072 / 0.1276)

Sorry there are no passes over London.